Regional Weather Roundup
Issued by NWS

Home | Current Version | Previous Version | Graphics & Text | Print | Product List | Glossary On
Versions: 1 2 3 4 5 6 7 8 9 10 11 12 13 14 15 16 17 18 19 20 21 22 23 24 25 26 27 28 29 30 31 32 33 34 35 36 37 38 39 40 41 42 43 44 45 46 47 48 49
000
ASUS45 KCYS 042310
RWRWY

WYOMING REGIONAL WEATHER ROUNDUP
NATIONAL WEATHER SERVICE CHEYENNE WY
500 PM MDT MON MAY 04 2015

NOTE:  "FAIR" INDICATES FEW OR NO CLOUDS BELOW 12,000 FEET
WITH NO SIGNIFICANT WEATHER AND/OR OBSTRUCTIONS TO VISIBILITY.

WYZ001-050000-
YELLOWSTONE NATIONAL PARK

CITY           SKY/WX    TMP DP  RH WIND       PRES   REMARKS
LK YELLOWSTONE   N/A     53  28  38 E6        30.06F
W YELLOWSTONE  NOT AVBL

$$
WYZ002>013-054>058-071-098>099-050000-
NORTHERN WYOMING

CITY           SKY/WX    TMP DP  RH WIND       PRES   REMARKS
JACKSON        MOSUNNY   61  30  31 SE5       30.00F
CODY           FAIR      64  43  45 SE7       29.94S
GREYBULL       FAIR      74  33  22 VRB3      29.87F
WORLAND        PTSUNNY   70  39  32 NW5       29.89S
SHERIDAN       FAIR      67  42  40 SE7       29.92F
BUFFALO        FAIR      67  42  40 S10G21    29.97F
GILLETTE       FAIR      61  40  45 SE29G35   29.99F
HULETT         FAIR      63  37  39 S15G24    30.05F
NEWCASTLE      FAIR      55  34  44 SE22G30   30.08F

$$
WYZ014>020-022>026-101>103-050000-
CENTRAL WYOMING

CITY           SKY/WX    TMP DP  RH WIND       PRES   REMARKS
BIG PINEY      FAIR      60  34  37 NW12      30.03S
PINEDALE       FAIR      59  28  31 SW9       30.02F
DUBOIS         FAIR      61  27  27 W7        29.99F
LANDER         FAIR      66  38  35 E9        29.92F
RIVERTON       FAIR      69  33  26 E8        29.94F
CASPER         FAIR      63  47  55 E13       29.98S
DOUGLAS        FAIR      57  43  59 SE22G30   30.03F

$$
WYZ021-027>030-104>119-050000-
SOUTHERN WYOMING

CITY           SKY/WX    TMP DP  RH WIND       PRES   REMARKS
EVANSTON       PTSUNNY   52  42  69 W12       30.04F
KEMMERER       CLOUDY    48  39  71 N14       30.05R
FORT BRIDGER   MOCLDY    61  36  39 W8        30.06R
ROCK SPRINGS   PTSUNNY   60  34  37 S12       29.99F
DIXON          CLOUDY    58  40  50 E12       30.04S THUNDER
RAWLINS        PTSUNNY   60  37  42 E22G31    30.02R
SARATOGA       TSTM      46  43  87 MISG      30.08R
LARAMIE        CLOUDY    48  41  76 SE17      30.10F
CHEYENNE       CLOUDY    53  43  68 S13       30.10S
TORRINGTON     FAIR      59  38  45 SE20      30.07F
PINE BLUFFS    CLOUDY    55  43  62 E12G17    30.09F

$$



USA.gov is the U.S. government's official web portal to all federal, state and local government web resources and services.